Time,TemperatureF,DewpointF,PressureIn,WindDirection,WindDirectionDegrees,WindSpeedMPH,WindSpeedGustMPH,Humidity,HourlyPrecipIn,Conditions,Clouds,dailyrainin,SoftwareType,DateUTC
2013-07-23 00:03:00,74.4,52.3,30.02,SE,129,1.0,3.0,46,0.00,,,0.00,Wunderground v.1.15,2013-07-23 07:03:00,
2013-07-23 00:08:00,74.1,52.0,30.03,East,101,5.0,5.0,46,0.00,,,0.00,Wunderground v.1.15,2013-07-23 07:08:00,
2013-07-23 00:13:00,73.8,52.3,30.04,East,92,5.0,5.0,47,0.00,,,0.00,Wunderground v.1.15,2013-07-23 07:13:00,
2013-07-23 00:19:00,73.5,52.0,30.04,ESE,103,1.0,11.0,47,0.00,,,0.00,Wunderground v.1.15,2013-07-23 07:19:00,
2013-07-23 00:24:00,73.4,51.9,30.04,East,95,4.0,9.0,47,0.00,,,0.00,Wunderground v.1.15,2013-07-23 07:24:00,
2013-07-23 00:30:00,73.5,52.0,30.03,ESE,112,5.0,5.0,47,0.00,,,0.00,Wunderground v.1.15,2013-07-23 07:30:00,
2013-07-23 00:35:00,73.7,52.8,30.03,ESE,106,0.0,5.0,48,0.00,,,0.00,Wunderground v.1.15,2013-07-23 07:35:00,
2013-07-23 00:40:00,73.8,52.3,30.03,ESE,106,1.0,2.0,47,0.00,,,0.00,Wunderground v.1.15,2013-07-23 07:40:00,
2013-07-23 00:45:00,74.0,51.9,30.03,ESE,106,1.0,4.0,46,0.00,,,0.00,Wunderground v.1.15,2013-07-23 07:45:00,
2013-07-23 00:50:00,74.1,52.0,30.02,ESE,107,0.0,1.0,46,0.00,,,0.00,Wunderground v.1.15,2013-07-23 07:50:00,
2013-07-23 00:56:00,74.4,51.7,30.02,ESE,111,1.0,5.0,45,0.00,,,0.00,Wunderground v.1.15,2013-07-23 07:56:00,
2013-07-23 01:01:00,74.4,51.1,30.02,ESE,122,5.0,9.0,44,0.00,,,0.00,Wunderground v.1.15,2013-07-23 08:01:00,
2013-07-23 01:07:00,74.5,51.2,30.02,SE,139,4.0,9.0,44,0.00,,,0.00,Wunderground v.1.15,2013-07-23 08:07:00,
2013-07-23 01:12:00,74.4,51.1,30.01,SSE,160,5.0,5.0,44,0.00,,,0.00,Wunderground v.1.15,2013-07-23 08:12:00,
2013-07-23 01:17:00,74.3,51.0,30.00,South,171,3.0,9.0,44,0.00,,,0.00,Wunderground v.1.15,2013-07-23 08:17:00,
2013-07-23 01:22:00,74.2,50.9,29.99,South,173,5.0,5.0,44,0.00,,,0.00,Wunderground v.1.15,2013-07-23 08:22:00,
2013-07-23 01:27:00,74.0,51.3,29.99,South,170,3.0,5.0,45,0.00,,,0.00,Wunderground v.1.15,2013-07-23 08:27:00,
2013-07-23 01:32:00,73.7,51.6,29.99,South,174,4.0,6.0,46,0.00,,,0.00,Wunderground v.1.15,2013-07-23 08:32:00,
2013-07-23 01:38:00,73.6,51.5,29.99,SSW,205,4.0,6.0,46,0.00,,,0.00,Wunderground v.1.15,2013-07-23 08:38:00,
2013-07-23 01:43:00,73.4,51.9,29.99,SW,218,3.0,8.0,47,0.00,,,0.00,Wunderground v.1.15,2013-07-23 08:43:00,
2013-07-23 01:48:00,73.2,52.3,30.00,SSW,204,3.0,8.0,48,0.00,,,0.00,Wunderground v.1.15,2013-07-23 08:48:00,
2013-07-23 01:53:00,72.9,53.2,29.98,SW,227,6.0,9.0,50,0.00,,,0.00,Wunderground v.1.15,2013-07-23 08:53:00,
2013-07-23 01:59:00,72.5,53.3,30.02,SE,138,4.0,9.0,51,0.00,,,0.00,Wunderground v.1.15,2013-07-23 08:59:00,
2013-07-23 02:04:00,72.4,53.2,29.99,SW,221,7.0,11.0,51,0.00,,,0.00,Wunderground v.1.15,2013-07-23 09:04:00,
2013-07-23 02:09:00,72.0,52.9,29.96,SW,228,15.0,20.0,51,0.00,,,0.00,Wunderground v.1.15,2013-07-23 09:09:00,
2013-07-23 02:14:00,71.9,52.8,29.96,SW,218,11.0,18.0,51,0.00,,,0.00,Wunderground v.1.15,2013-07-23 09:14:00,
2013-07-23 02:19:00,71.6,52.5,29.97,SW,223,13.0,18.0,51,0.00,,,0.00,Wunderground v.1.15,2013-07-23 09:19:00,
2013-07-23 02:24:00,71.1,52.6,29.94,SW,229,15.0,20.0,52,0.00,,,0.00,Wunderground v.1.15,2013-07-23 09:24:00,
2013-07-23 02:29:00,70.8,52.3,29.94,WSW,239,14.0,21.0,52,0.00,,,0.00,Wunderground v.1.15,2013-07-23 09:29:00,
2013-07-23 02:34:00,70.8,52.3,29.97,SSW,208,5.0,14.0,52,0.00,,,0.00,Wunderground v.1.15,2013-07-23 09:34:00,
2013-07-23 02:39:00,70.8,52.3,30.00,SSE,163,1.0,14.0,52,0.00,,,0.00,Wunderground v.1.15,2013-07-23 09:39:00,
2013-07-23 02:44:00,70.7,52.7,30.00,SSE,148,4.0,5.0,53,0.00,,,0.00,Wunderground v.1.15,2013-07-23 09:44:00,
2013-07-23 02:49:00,70.5,52.5,30.00,SSE,150,4.0,5.0,53,0.00,,,0.00,Wunderground v.1.15,2013-07-23 09:49:00,
2013-07-23 02:54:00,70.6,52.1,30.00,SSE,150,0.0,3.0,52,0.00,,,0.00,Wunderground v.1.15,2013-07-23 09:54:00,
2013-07-23 02:59:00,70.5,52.5,30.01,SSE,150,0.0,3.0,53,0.00,,,0.00,Wunderground v.1.15,2013-07-23 09:59:00,
2013-07-23 03:04:00,70.6,51.6,30.01,SSE,150,0.0,0.0,51,0.00,,,0.00,Wunderground v.1.15,2013-07-23 10:04:00,
2013-07-23 03:09:00,70.9,51.9,30.01,SSE,150,0.0,1.0,51,0.00,,,0.00,Wunderground v.1.15,2013-07-23 10:09:00,
2013-07-23 03:14:00,71.2,51.6,30.02,SSE,150,0.0,0.0,50,0.00,,,0.00,Wunderground v.1.15,2013-07-23 10:14:00,
2013-07-23 03:19:00,71.3,51.7,30.02,SSE,148,0.0,1.0,50,0.00,,,0.00,Wunderground v.1.15,2013-07-23 10:19:00,
2013-07-23 03:24:00,71.3,51.7,30.03,SE,132,0.0,5.0,50,0.00,,,0.00,Wunderground v.1.15,2013-07-23 10:24:00,
2013-07-23 03:29:00,71.5,51.9,30.03,SE,128,0.0,5.0,50,0.00,,,0.00,Wunderground v.1.15,2013-07-23 10:29:00,
2013-07-23 03:34:00,71.5,51.9,30.03,SE,126,1.0,6.0,50,0.00,,,0.00,Wunderground v.1.15,2013-07-23 10:34:00,
2013-07-23 03:39:00,71.5,51.9,30.02,SE,128,0.0,6.0,50,0.00,,,0.00,Wunderground v.1.15,2013-07-23 10:39:00,
2013-07-23 03:44:00,71.3,51.7,30.03,SE,129,0.0,7.0,50,0.00,,,0.00,Wunderground v.1.15,2013-07-23 10:44:00,
2013-07-23 03:49:00,71.2,52.1,30.02,SSE,152,6.0,7.0,51,0.00,,,0.00,Wunderground v.1.15,2013-07-23 10:49:00,
2013-07-23 03:54:00,71.1,52.0,30.03,SSE,148,0.0,5.0,51,0.00,,,0.00,Wunderground v.1.15,2013-07-23 10:54:00,
2013-07-23 03:59:00,71.0,52.0,30.02,SSE,164,3.0,6.0,51,0.00,,,0.00,Wunderground v.1.15,2013-07-23 10:59:00,
2013-07-23 04:05:00,70.8,52.3,30.02,SSE,163,4.0,4.0,52,0.00,,,0.00,Wunderground v.1.15,2013-07-23 11:05:00,
2013-07-23 04:10:00,70.6,52.6,30.02,SSE,167,3.0,5.0,53,0.00,,,0.00,Wunderground v.1.15,2013-07-23 11:10:00,
2013-07-23 04:15:00,70.4,52.4,30.01,SSE,167,0.0,5.0,53,0.00,,,0.00,Wunderground v.1.15,2013-07-23 11:15:00,
2013-07-23 04:20:00,70.3,52.4,30.01,South,169,0.0,2.0,53,0.00,,,0.00,Wunderground v.1.15,2013-07-23 11:20:00,
2013-07-23 04:25:00,70.2,52.8,30.00,South,173,2.0,4.0,54,0.00,,,0.00,Wunderground v.1.15,2013-07-23 11:25:00,
2013-07-23 04:30:00,70.1,52.7,30.01,South,178,2.0,5.0,54,0.00,,,0.00,Wunderground v.1.15,2013-07-23 11:30:00,
2013-07-23 04:35:00,70.2,52.8,30.02,South,182,2.0,8.0,54,0.00,,,0.00,Wunderground v.1.15,2013-07-23 11:35:00,
2013-07-23 04:40:00,70.2,52.8,30.03,South,182,1.0,4.0,54,0.00,,,0.00,Wunderground v.1.15,2013-07-23 11:40:00,
2013-07-23 04:46:00,70.2,52.8,30.03,South,175,0.0,5.0,54,0.00,,,0.00,Wunderground v.1.15,2013-07-23 11:46:00,
2013-07-23 04:51:00,70.2,52.3,30.03,South,173,2.0,3.0,53,0.00,,,0.00,Wunderground v.1.15,2013-07-23 11:51:00,
2013-07-23 04:56:00,70.1,52.2,30.04,South,173,0.0,4.0,53,0.00,,,0.00,Wunderground v.1.15,2013-07-23 11:56:00,
2013-07-23 05:01:00,70.0,52.6,30.05,SSE,160,0.0,1.0,54,0.00,,,0.00,Wunderground v.1.15,2013-07-23 12:01:00,
2013-07-23 05:06:00,70.1,52.2,30.04,SE,132,0.0,9.0,53,0.00,,,0.00,Wunderground v.1.15,2013-07-23 12:06:00,
2013-07-23 05:11:00,70.1,51.7,30.05,SE,134,0.0,1.0,52,0.00,,,0.00,Wunderground v.1.15,2013-07-23 12:11:00,
2013-07-23 05:16:00,70.1,52.2,30.05,SE,134,0.0,1.0,53,0.00,,,0.00,Wunderground v.1.15,2013-07-23 12:16:00,
2013-07-23 05:21:00,70.1,52.2,30.05,SE,134,0.0,0.0,53,0.00,,,0.00,Wunderground v.1.15,2013-07-23 12:21:00,
2013-07-23 05:26:00,70.1,52.2,30.05,SE,134,0.0,0.0,53,0.00,,,0.00,Wunderground v.1.15,2013-07-23 12:26:00,
2013-07-23 05:31:00,70.2,52.3,30.05,SE,134,0.0,0.0,53,0.00,,,0.00,Wunderground v.1.15,2013-07-23 12:31:00,
2013-07-23 05:36:00,70.2,51.7,30.05,SE,134,0.0,0.0,52,0.00,,,0.00,Wunderground v.1.15,2013-07-23 12:36:00,
2013-07-23 05:41:00,70.3,51.8,30.05,SE,134,0.0,0.0,52,0.00,,,0.00,Wunderground v.1.15,2013-07-23 12:41:00,
2013-07-23 05:46:00,70.2,52.3,30.05,SE,134,0.0,0.0,53,0.00,,,0.00,Wunderground v.1.15,2013-07-23 12:46:00,
2013-07-23 05:51:00,70.1,51.7,30.05,SE,134,0.0,0.0,52,0.00,,,0.00,Wunderground v.1.15,2013-07-23 12:51:00,
2013-07-23 05:56:00,69.9,51.5,30.05,SE,134,0.0,0.0,52,0.00,,,0.00,Wunderground v.1.15,2013-07-23 12:56:00,
2013-07-23 06:01:00,69.7,51.8,30.05,SE,134,0.0,0.0,53,0.00,,,0.00,Wunderground v.1.15,2013-07-23 13:01:00,
2013-07-23 06:06:00,69.6,52.2,30.05,SE,134,0.0,0.0,54,0.00,,,0.00,Wunderground v.1.15,2013-07-23 13:06:00,
2013-07-23 06:11:00,69.5,52.1,30.05,SSE,150,0.0,0.0,54,0.00,,,0.00,Wunderground v.1.15,2013-07-23 13:11:00,
2013-07-23 06:16:00,69.0,52.2,30.05,South,171,1.0,6.0,55,0.00,,,0.00,Wunderground v.1.15,2013-07-23 13:16:00,
2013-07-23 06:21:00,68.6,52.8,30.06,South,171,3.0,3.0,57,0.00,,,0.00,Wunderground v.1.15,2013-07-23 13:21:00,
2013-07-23 06:26:00,68.5,52.7,30.05,South,171,0.0,4.0,57,0.00,,,0.00,Wunderground v.1.15,2013-07-23 13:26:00,
2013-07-23 06:31:00,68.5,53.1,30.05,South,171,0.0,2.0,58,0.00,,,0.00,Wunderground v.1.15,2013-07-23 13:31:00,
2013-07-23 06:36:00,68.5,53.1,30.05,South,171,0.0,2.0,58,0.00,,,0.00,Wunderground v.1.15,2013-07-23 13:36:00,
2013-07-23 06:41:00,68.7,53.3,30.05,South,171,0.0,0.0,58,0.00,,,0.00,Wunderground v.1.15,2013-07-23 13:41:00,
2013-07-23 06:46:00,69.1,53.7,30.05,South,172,0.0,0.0,58,0.00,,,0.00,Wunderground v.1.15,2013-07-23 13:46:00,
2013-07-23 06:51:00,69.4,53.5,30.05,SSE,168,0.0,1.0,57,0.00,,,0.00,Wunderground v.1.15,2013-07-23 13:51:00,
2013-07-23 06:56:00,69.7,53.8,30.05,SSE,167,0.0,1.0,57,0.00,,,0.00,Wunderground v.1.15,2013-07-23 13:56:00,
2013-07-23 07:01:00,69.8,53.4,30.06,SSE,163,0.0,0.0,56,0.00,,,0.00,Wunderground v.1.15,2013-07-23 14:01:00,
2013-07-23 07:07:00,69.8,53.4,30.06,SSE,148,0.0,3.0,56,0.00,,,0.00,Wunderground v.1.15,2013-07-23 14:07:00,
2013-07-23 07:12:00,69.9,54.0,30.06,SE,144,1.0,3.0,57,0.00,,,0.00,Wunderground v.1.15,2013-07-23 14:12:00,
2013-07-23 07:17:00,70.2,53.8,30.06,SE,145,0.0,4.0,56,0.00,,,0.00,Wunderground v.1.15,2013-07-23 14:17:00,
2013-07-23 07:22:00,70.7,53.7,30.06,SE,129,0.0,3.0,55,0.00,,,0.00,Wunderground v.1.15,2013-07-23 14:22:00,
2013-07-23 07:27:00,71.0,53.5,30.07,SE,128,6.0,10.0,54,0.00,,,0.00,Wunderground v.1.15,2013-07-23 14:27:00,
2013-07-23 07:32:00,71.3,53.8,30.06,ESE,123,3.0,4.0,54,0.00,,,0.00,Wunderground v.1.15,2013-07-23 14:32:00,
2013-07-23 07:37:00,71.8,53.7,30.06,ESE,123,0.0,7.0,53,0.00,,,0.00,Wunderground v.1.15,2013-07-23 14:37:00,
2013-07-23 07:42:00,72.2,53.6,30.06,ESE,121,2.0,2.0,52,0.00,,,0.00,Wunderground v.1.15,2013-07-23 14:42:00,
2013-07-23 07:47:00,72.5,53.9,30.06,ESE,121,0.0,4.0,52,0.00,,,0.00,Wunderground v.1.15,2013-07-23 14:47:00,
2013-07-23 07:52:00,72.8,53.6,30.06,ESE,121,0.0,4.0,51,0.00,,,0.00,Wunderground v.1.15,2013-07-23 14:52:00,
2013-07-23 07:57:00,73.1,53.9,30.06,ESE,121,1.0,5.0,51,0.00,,,0.00,Wunderground v.1.15,2013-07-23 14:57:00,
2013-07-23 08:02:00,73.4,54.2,30.06,ESE,114,2.0,4.0,51,0.00,,,0.00,Wunderground v.1.15,2013-07-23 15:02:00,
2013-07-23 08:08:00,73.7,53.9,30.06,ESE,115,0.0,4.0,50,0.00,,,0.00,Wunderground v.1.15,2013-07-23 15:08:00,
2013-07-23 08:12:00,74.0,53.1,30.06,ESE,117,0.0,3.0,48,0.00,,,0.00,Wunderground v.1.15,2013-07-23 15:12:00,
2013-07-23 08:17:00,74.3,53.3,30.06,ESE,117,1.0,4.0,48,0.00,,,0.00,Wunderground v.1.15,2013-07-23 15:17:00,
2013-07-23 08:23:00,74.6,53.6,30.06,ESE,120,3.0,4.0,48,0.00,,,0.00,Wunderground v.1.15,2013-07-23 15:23:00,
2013-07-23 08:28:00,74.8,54.4,30.06,ESE,119,0.0,4.0,49,0.00,,,0.00,Wunderground v.1.15,2013-07-23 15:28:00,
2013-07-23 08:33:00,75.3,54.3,30.07,SE,125,3.0,6.0,48,0.00,,,0.00,Wunderground v.1.15,2013-07-23 15:33:00,
2013-07-23 08:38:00,75.0,53.4,30.07,SE,131,2.0,6.0,47,0.00,,,0.00,Wunderground v.1.15,2013-07-23 15:38:00,
2013-07-23 08:43:00,75.2,53.6,30.06,SE,132,0.0,4.0,47,0.00,,,0.00,Wunderground v.1.15,2013-07-23 15:43:00,
2013-07-23 08:48:00,75.7,54.0,30.07,SE,132,0.0,4.0,47,0.00,,,0.00,Wunderground v.1.15,2013-07-23 15:48:00,
2013-07-23 08:53:00,75.8,53.5,30.07,SE,144,2.0,6.0,46,0.00,,,0.00,Wunderground v.1.15,2013-07-23 15:53:00,
2013-07-23 08:58:00,76.0,53.7,30.07,SE,145,1.0,6.0,46,0.00,,,0.00,Wunderground v.1.15,2013-07-23 15:58:00,
2013-07-23 09:03:00,76.4,53.5,30.07,SE,145,0.0,3.0,45,0.00,,,0.00,Wunderground v.1.15,2013-07-23 16:03:00,
2013-07-23 09:08:00,77.0,54.0,30.07,SE,131,0.0,4.0,45,0.00,,,0.00,Wunderground v.1.15,2013-07-23 16:08:00,
2013-07-23 09:13:00,77.6,54.6,30.07,SE,129,2.0,5.0,45,0.00,,,0.00,Wunderground v.1.15,2013-07-23 16:13:00,
2013-07-23 09:18:00,78.1,54.4,30.07,SSE,161,5.0,7.0,44,0.00,,,0.00,Wunderground v.1.15,2013-07-23 16:18:00,
2013-07-23 09:23:00,78.0,54.3,30.07,SSE,159,4.0,10.0,44,0.00,,,0.00,Wunderground v.1.15,2013-07-23 16:23:00,
2013-07-23 09:28:00,78.2,54.5,30.07,SSE,160,3.0,10.0,44,0.00,,,0.00,Wunderground v.1.15,2013-07-23 16:28:00,
2013-07-23 09:33:00,78.6,54.2,30.07,South,180,0.0,10.0,43,0.00,,,0.00,Wunderground v.1.15,2013-07-23 16:33:00,
2013-07-23 09:38:00,78.7,53.7,30.07,South,173,6.0,10.0,42,0.00,,,0.00,Wunderground v.1.15,2013-07-23 16:38:00,
2013-07-23 09:43:00,79.1,54.7,30.07,South,190,9.0,12.0,43,0.00,,,0.00,Wunderground v.1.15,2013-07-23 16:43:00,
2013-07-23 09:48:00,79.5,54.4,30.07,SSE,165,0.0,12.0,42,0.00,,,0.00,Wunderground v.1.15,2013-07-23 16:48:00,
2013-07-23 09:53:00,80.0,54.8,30.06,SSE,164,4.0,6.0,42,0.00,,,0.00,Wunderground v.1.15,2013-07-23 16:53:00,
2013-07-23 09:58:00,80.2,55.0,30.06,SSE,162,5.0,9.0,42,0.00,,,0.00,Wunderground v.1.15,2013-07-23 16:58:00,
2013-07-23 10:03:00,80.3,54.5,30.07,South,178,1.0,10.0,41,0.00,,,0.00,Wunderground v.1.15,2013-07-23 17:03:00,
2013-07-23 10:08:00,80.5,54.6,30.07,South,185,2.0,10.0,41,0.00,,,0.00,Wunderground v.1.15,2013-07-23 17:08:00,
2013-07-23 10:13:00,80.6,55.4,30.07,South,175,1.0,7.0,42,0.00,,,0.00,Wunderground v.1.15,2013-07-23 17:13:00,
2013-07-23 10:18:00,81.0,55.1,30.07,South,180,3.0,9.0,41,0.00,,,0.00,Wunderground v.1.15,2013-07-23 17:18:00,
2013-07-23 10:23:00,81.3,55.3,30.07,South,183,0.0,6.0,41,0.00,,,0.00,Wunderground v.1.15,2013-07-23 17:23:00,
2013-07-23 10:29:00,81.9,55.9,30.08,SSE,153,6.0,10.0,41,0.00,,,0.00,Wunderground v.1.15,2013-07-23 17:29:00,
2013-07-23 10:34:00,82.1,56.1,30.08,SSW,200,2.0,10.0,41,0.00,,,0.00,Wunderground v.1.15,2013-07-23 17:34:00,
2013-07-23 10:39:00,82.5,55.7,30.08,South,185,4.0,10.0,40,0.00,,,0.00,Wunderground v.1.15,2013-07-23 17:39:00,
2013-07-23 10:44:00,82.2,55.5,30.07,South,182,1.0,9.0,40,0.00,,,0.00,Wunderground v.1.15,2013-07-23 17:44:00,
2013-07-23 10:49:00,82.2,54.8,30.07,South,183,3.0,10.0,39,0.00,,,0.00,Wunderground v.1.15,2013-07-23 17:49:00,
2013-07-23 10:55:00,82.5,55.7,30.07,SSE,152,3.0,6.0,40,0.00,,,0.00,Wunderground v.1.15,2013-07-23 17:55:00,
2013-07-23 11:00:00,82.5,55.7,30.08,South,172,6.0,7.0,40,0.00,,,0.00,Wunderground v.1.15,2013-07-23 18:00:00,
2013-07-23 11:05:00,82.5,55.0,30.08,South,178,0.0,8.0,39,0.00,,,0.00,Wunderground v.1.15,2013-07-23 18:05:00,
2013-07-23 11:10:00,82.7,55.2,30.07,South,175,2.0,7.0,39,0.00,,,0.00,Wunderground v.1.15,2013-07-23 18:10:00,
2013-07-23 11:15:00,82.5,56.4,30.08,South,184,4.0,12.0,41,0.00,,,0.00,Wunderground v.1.15,2013-07-23 18:15:00,
2013-07-23 11:21:00,82.4,57.0,30.08,SSE,167,2.0,4.0,42,0.00,,,0.00,Wunderground v.1.15,2013-07-23 18:21:00,
2013-07-23 11:26:00,82.0,56.6,30.08,South,169,5.0,11.0,42,0.00,,,0.00,Wunderground v.1.15,2013-07-23 18:26:00,
2013-07-23 11:31:00,81.7,57.0,30.08,South,190,3.0,6.0,43,0.00,,,0.00,Wunderground v.1.15,2013-07-23 18:31:00,
2013-07-23 11:36:00,81.6,56.3,30.07,SSW,193,2.0,10.0,42,0.00,,,0.00,Wunderground v.1.15,2013-07-23 18:36:00,
2013-07-23 11:41:00,81.4,56.1,30.07,SSW,192,1.0,5.0,42,0.00,,,0.00,Wunderground v.1.15,2013-07-23 18:41:00,
2013-07-23 11:46:00,81.3,56.7,30.07,SSW,192,6.0,9.0,43,0.00,,,0.00,Wunderground v.1.15,2013-07-23 18:46:00,
2013-07-23 11:51:00,81.2,56.6,30.07,South,187,4.0,6.0,43,0.00,,,0.00,Wunderground v.1.15,2013-07-23 18:51:00,
2013-07-23 11:56:00,81.1,56.5,30.07,South,187,0.0,7.0,43,0.00,,,0.00,Wunderground v.1.15,2013-07-23 18:56:00,
2013-07-23 12:01:00,81.3,57.3,30.07,SSE,165,3.0,6.0,44,0.00,,,0.00,Wunderground v.1.15,2013-07-23 19:01:00,
2013-07-23 12:06:00,81.3,56.7,30.07,SSE,168,2.0,7.0,43,0.00,,,0.00,Wunderground v.1.15,2013-07-23 19:06:00,
2013-07-23 12:12:00,81.5,56.8,30.07,SSE,159,4.0,6.0,43,0.00,,,0.00,Wunderground v.1.15,2013-07-23 19:12:00,
2013-07-23 12:17:00,81.4,56.8,30.07,South,170,3.0,6.0,43,0.00,,,0.00,Wunderground v.1.15,2013-07-23 19:17:00,
2013-07-23 12:22:00,81.6,56.9,30.07,SSE,165,0.0,6.0,43,0.00,,,0.00,Wunderground v.1.15,2013-07-23 19:22:00,
2013-07-23 12:27:00,82.4,56.3,30.07,South,182,3.0,6.0,41,0.00,,,0.00,Wunderground v.1.15,2013-07-23 19:27:00,
2013-07-23 12:32:00,82.8,56.7,30.07,South,180,0.0,3.0,41,0.00,,,0.00,Wunderground v.1.15,2013-07-23 19:32:00,
2013-07-23 12:37:00,83.2,57.1,30.07,SSE,161,2.0,6.0,41,0.00,,,0.00,Wunderground v.1.15,2013-07-23 19:37:00,
2013-07-23 12:42:00,83.4,57.2,30.07,SSE,162,3.0,5.0,41,0.00,,,0.00,Wunderground v.1.15,2013-07-23 19:42:00,
2013-07-23 12:47:00,83.7,56.8,30.07,SSE,156,0.0,5.0,40,0.00,,,0.00,Wunderground v.1.15,2013-07-23 19:47:00,
2013-07-23 12:52:00,84.5,56.8,30.07,SSE,155,0.0,3.0,39,0.00,,,0.00,Wunderground v.1.15,2013-07-23 19:52:00,
2013-07-23 12:57:00,84.9,57.2,30.07,SSE,160,0.0,7.0,39,0.00,,,0.00,Wunderground v.1.15,2013-07-23 19:57:00,
2013-07-23 13:02:00,85.5,56.3,30.07,SSE,163,5.0,5.0,37,0.00,,,0.00,Wunderground v.1.15,2013-07-23 20:02:00,
2013-07-23 13:07:00,86.1,56.0,30.06,South,173,0.0,6.0,36,0.00,,,0.00,Wunderground v.1.15,2013-07-23 20:07:00,
2013-07-23 13:13:00,86.8,55.9,30.06,SSE,163,6.0,6.0,35,0.00,,,0.00,Wunderground v.1.15,2013-07-23 20:13:00,
2013-07-23 13:18:00,87.0,55.2,30.06,South,190,0.0,10.0,34,0.00,,,0.00,Wunderground v.1.15,2013-07-23 20:18:00,
2013-07-23 13:23:00,87.2,52.9,30.06,SSE,163,0.0,6.0,31,0.00,,,0.00,Wunderground v.1.15,2013-07-23 20:23:00,
2013-07-23 13:28:00,87.4,50.3,30.06,South,175,4.0,6.0,28,0.00,,,0.00,Wunderground v.1.15,2013-07-23 20:28:00,
2013-07-23 13:34:00,87.8,52.5,30.06,South,179,0.0,6.0,30,0.00,,,0.00,Wunderground v.1.15,2013-07-23 20:34:00,
2013-07-23 13:39:00,87.6,51.4,30.06,South,182,5.0,10.0,29,0.00,,,0.00,Wunderground v.1.15,2013-07-23 20:39:00,
2013-07-23 13:44:00,87.2,52.9,30.06,South,183,9.0,13.0,31,0.00,,,0.00,Wunderground v.1.15,2013-07-23 20:44:00,
2013-07-23 13:50:00,87.2,53.7,30.05,South,177,3.0,6.0,32,0.00,,,0.00,Wunderground v.1.15,2013-07-23 20:50:00,
2013-07-23 13:55:00,87.1,51.9,30.05,South,175,5.0,10.0,30,0.00,,,0.00,Wunderground v.1.15,2013-07-23 20:55:00,
2013-07-23 14:00:00,87.1,53.7,30.05,South,174,5.0,7.0,32,0.00,,,0.00,Wunderground v.1.15,2013-07-23 21:00:00,
2013-07-23 14:05:00,87.4,53.9,30.05,SSW,206,3.0,7.0,32,0.00,,,0.00,Wunderground v.1.15,2013-07-23 21:05:00,
2013-07-23 14:11:00,87.4,55.6,30.05,SSE,164,4.0,5.0,34,0.00,,,0.00,Wunderground v.1.15,2013-07-23 21:11:00,
2013-07-23 14:16:00,87.5,54.9,30.05,South,169,2.0,8.0,33,0.00,,,0.00,Wunderground v.1.15,2013-07-23 21:16:00,
2013-07-23 14:21:00,88.1,55.4,30.05,South,169,5.0,6.0,33,0.00,,,0.00,Wunderground v.1.15,2013-07-23 21:21:00,
2013-07-23 14:26:00,88.1,53.7,30.05,South,171,3.0,8.0,31,0.00,,,0.00,Wunderground v.1.15,2013-07-23 21:26:00,
2013-07-23 14:31:00,88.5,54.9,30.05,SSE,157,4.0,7.0,32,0.00,,,0.00,Wunderground v.1.15,2013-07-23 21:31:00,
2013-07-23 14:36:00,88.8,56.0,30.05,South,169,6.0,10.0,33,0.00,,,0.00,Wunderground v.1.15,2013-07-23 21:36:00,
2013-07-23 14:41:00,88.5,55.7,30.05,South,178,7.0,11.0,33,0.00,,,0.00,Wunderground v.1.15,2013-07-23 21:41:00,
2013-07-23 14:46:00,88.1,56.2,30.04,SSE,150,5.0,11.0,34,0.00,,,0.00,Wunderground v.1.15,2013-07-23 21:46:00,
2013-07-23 14:51:00,88.2,54.6,30.04,SSW,194,4.0,9.0,32,0.00,,,0.00,Wunderground v.1.15,2013-07-23 21:51:00,
2013-07-23 14:56:00,88.7,55.1,30.04,South,187,3.0,10.0,32,0.00,,,0.00,Wunderground v.1.15,2013-07-23 21:56:00,
2013-07-23 15:02:00,89.0,53.5,30.04,South,184,7.0,11.0,30,0.00,,,0.00,Wunderground v.1.15,2013-07-23 22:02:00,
2013-07-23 15:07:00,89.0,53.5,30.04,South,179,5.0,11.0,30,0.00,,,0.00,Wunderground v.1.15,2013-07-23 22:07:00,
2013-07-23 15:12:00,89.0,54.4,30.04,SSE,159,5.0,9.0,31,0.00,,,0.00,Wunderground v.1.15,2013-07-23 22:12:00,
2013-07-23 15:17:00,89.6,53.1,30.04,SSE,152,5.0,9.0,29,0.00,,,0.00,Wunderground v.1.15,2013-07-23 22:17:00,
2013-07-23 15:22:00,90.1,51.6,30.04,South,173,4.0,9.0,27,0.00,,,0.00,Wunderground v.1.15,2013-07-23 22:22:00,
2013-07-23 15:27:00,90.3,52.8,30.03,South,184,12.0,12.0,28,0.00,,,0.00,Wunderground v.1.15,2013-07-23 22:27:00,
2013-07-23 15:32:00,89.8,52.3,30.03,South,190,6.0,10.0,28,0.00,,,0.00,Wunderground v.1.15,2013-07-23 22:32:00,
2013-07-23 15:37:00,90.5,52.9,30.03,SSE,160,4.0,10.0,28,0.00,,,0.00,Wunderground v.1.15,2013-07-23 22:37:00,
2013-07-23 15:42:00,90.5,53.9,30.03,South,171,1.0,12.0,29,0.00,,,0.00,Wunderground v.1.15,2013-07-23 22:42:00,
2013-07-23 15:48:00,91.2,53.5,30.03,SSE,153,2.0,12.0,28,0.00,,,0.00,Wunderground v.1.15,2013-07-23 22:48:00,
2013-07-23 15:53:00,91.1,51.4,30.02,South,175,13.0,13.0,26,0.00,,,0.00,Wunderground v.1.15,2013-07-23 22:53:00,
2013-07-23 15:58:00,91.2,51.5,30.03,South,177,6.0,13.0,26,0.00,,,0.00,Wunderground v.1.15,2013-07-23 22:58:00,
2013-07-23 16:03:00,91.6,52.9,30.02,SSW,192,9.0,11.0,27,0.00,,,0.00,Wunderground v.1.15,2013-07-23 23:03:00,
2013-07-23 16:08:00,91.6,52.9,30.02,South,183,11.0,16.0,27,0.00,,,0.00,Wunderground v.1.15,2013-07-23 23:08:00,
2013-07-23 16:13:00,91.4,51.7,30.02,SSW,195,8.0,11.0,26,0.00,,,0.00,Wunderground v.1.15,2013-07-23 23:13:00,
2013-07-23 16:18:00,91.3,51.6,30.02,SSE,154,3.0,13.0,26,0.00,,,0.00,Wunderground v.1.15,2013-07-23 23:18:00,
2013-07-23 16:23:00,90.9,52.3,30.01,South,190,9.0,12.0,27,0.00,,,0.00,Wunderground v.1.15,2013-07-23 23:23:00,
2013-07-23 16:28:00,90.8,53.2,30.01,SSE,160,9.0,12.0,28,0.00,,,0.00,Wunderground v.1.15,2013-07-23 23:28:00,
2013-07-23 16:34:00,90.3,53.7,30.01,SSE,167,7.0,10.0,29,0.00,,,0.00,Wunderground v.1.15,2013-07-23 23:34:00,
2013-07-23 16:39:00,90.2,54.6,30.01,SSE,161,6.0,13.0,30,0.00,,,0.00,Wunderground v.1.15,2013-07-23 23:39:00,
2013-07-23 16:44:00,91.2,55.4,30.01,South,169,7.0,11.0,30,0.00,,,0.00,Wunderground v.1.15,2013-07-23 23:44:00,
2013-07-23 16:49:00,91.7,55.9,30.01,South,173,9.0,14.0,30,0.00,,,0.00,Wunderground v.1.15,2013-07-23 23:49:00,
2013-07-23 16:54:00,92.2,56.3,30.01,South,176,5.0,15.0,30,0.00,,,0.00,Wunderground v.1.15,2013-07-23 23:54:00,
2013-07-23 16:59:00,91.3,55.5,30.01,SSE,150,11.0,15.0,30,0.00,,,0.00,Wunderground v.1.15,2013-07-23 23:59:00,
2013-07-23 17:04:00,90.4,54.7,30.00,South,179,12.0,14.0,30,0.00,,,0.00,Wunderground v.1.15,2013-07-24 00:04:00,
2013-07-23 17:09:00,89.5,54.9,30.00,SSE,165,7.0,14.0,31,0.00,,,0.00,Wunderground v.1.15,2013-07-24 00:09:00,
2013-07-23 17:14:00,89.3,54.7,30.00,South,180,4.0,15.0,31,0.00,,,0.00,Wunderground v.1.15,2013-07-24 00:14:00,
2013-07-23 17:20:00,89.2,55.5,30.00,SSE,161,2.0,6.0,32,0.00,,,0.00,Wunderground v.1.15,2013-07-24 00:20:00,
2013-07-23 17:25:00,89.2,53.7,30.00,SE,146,10.0,12.0,30,0.00,,,0.00,Wunderground v.1.15,2013-07-24 00:25:00,
2013-07-23 17:31:00,89.4,53.9,30.00,SSE,148,0.0,6.0,30,0.00,,,0.00,Wunderground v.1.15,2013-07-24 00:31:00,
2013-07-23 17:36:00,89.8,53.3,30.00,South,182,6.0,11.0,29,0.00,,,0.00,Wunderground v.1.15,2013-07-24 00:36:00,
2013-07-23 17:41:00,90.0,54.4,30.00,SSE,156,10.0,10.0,30,0.00,,,0.00,Wunderground v.1.15,2013-07-24 00:41:00,
2013-07-23 17:46:00,89.7,54.1,30.00,South,178,12.0,13.0,30,0.00,,,0.00,Wunderground v.1.15,2013-07-24 00:46:00,
2013-07-23 17:51:00,89.4,54.8,30.00,SSE,155,3.0,8.0,31,0.00,,,0.00,Wunderground v.1.15,2013-07-24 00:51:00,
2013-07-23 17:56:00,89.3,54.7,30.00,South,169,4.0,11.0,31,0.00,,,0.00,Wunderground v.1.15,2013-07-24 00:56:00,
2013-07-23 18:01:00,89.2,56.3,30.00,South,188,4.0,12.0,33,0.00,,,0.00,Wunderground v.1.15,2013-07-24 01:01:00,
2013-07-23 18:06:00,89.4,56.5,30.00,SSE,153,5.0,12.0,33,0.00,,,0.00,Wunderground v.1.15,2013-07-24 01:06:00,
2013-07-23 18:11:00,89.2,56.3,30.00,South,172,9.0,12.0,33,0.00,,,0.00,Wunderground v.1.15,2013-07-24 01:11:00,
2013-07-23 18:16:00,89.0,56.2,30.00,SE,141,4.0,12.0,33,0.00,,,0.00,Wunderground v.1.15,2013-07-24 01:16:00,
2013-07-23 18:21:00,88.6,56.6,30.00,South,182,7.0,10.0,34,0.00,,,0.00,Wunderground v.1.15,2013-07-24 01:21:00,
2013-07-23 18:26:00,88.5,56.6,30.00,South,171,6.0,10.0,34,0.00,,,0.00,Wunderground v.1.15,2013-07-24 01:26:00,
2013-07-23 18:31:00,88.7,55.9,30.00,South,171,3.0,12.0,33,0.00,,,0.00,Wunderground v.1.15,2013-07-24 01:31:00,
2013-07-23 18:37:00,88.4,55.6,30.00,South,178,4.0,13.0,33,0.00,,,0.00,Wunderground v.1.15,2013-07-24 01:37:00,
2013-07-23 18:42:00,88.2,54.6,30.00,SSE,165,4.0,9.0,32,0.00,,,0.00,Wunderground v.1.15,2013-07-24 01:42:00,
2013-07-23 18:47:00,87.7,55.0,30.00,SSE,163,6.0,11.0,33,0.00,,,0.00,Wunderground v.1.15,2013-07-24 01:47:00,
2013-07-23 18:52:00,87.3,57.1,30.00,South,171,8.0,11.0,36,0.00,,,0.00,Wunderground v.1.15,2013-07-24 01:52:00,
2013-07-23 18:57:00,87.0,57.6,30.00,South,175,3.0,12.0,37,0.00,,,0.00,Wunderground v.1.15,2013-07-24 01:57:00,
2013-07-23 19:02:00,86.7,57.3,30.00,South,173,7.0,10.0,37,0.00,,,0.00,Wunderground v.1.15,2013-07-24 02:02:00,
2013-07-23 19:07:00,86.2,57.6,30.00,South,172,4.0,11.0,38,0.00,,,0.00,Wunderground v.1.15,2013-07-24 02:07:00,
2013-07-23 19:12:00,86.0,58.2,30.00,South,174,5.0,9.0,39,0.00,,,0.00,Wunderground v.1.15,2013-07-24 02:12:00,
2013-07-23 19:17:00,85.8,56.5,30.00,South,183,8.0,12.0,37,0.00,,,0.00,Wunderground v.1.15,2013-07-24 02:17:00,
2013-07-23 19:22:00,85.5,57.0,30.00,South,172,7.0,10.0,38,0.00,,,0.00,Wunderground v.1.15,2013-07-24 02:22:00,
2013-07-23 19:27:00,85.2,56.7,30.00,South,183,4.0,10.0,38,0.00,,,0.00,Wunderground v.1.15,2013-07-24 02:27:00,
2013-07-23 19:33:00,84.5,55.4,30.00,South,186,3.0,12.0,37,0.00,,,0.00,Wunderground v.1.15,2013-07-24 02:33:00,
2013-07-23 19:38:00,83.6,55.3,30.00,South,186,6.0,13.0,38,0.00,,,0.00,Wunderground v.1.15,2013-07-24 02:38:00,
2013-07-23 19:44:00,83.1,54.9,30.00,South,184,3.0,9.0,38,0.00,,,0.00,Wunderground v.1.15,2013-07-24 02:44:00,
2013-07-23 19:49:00,82.7,55.9,30.00,South,180,5.0,12.0,40,0.00,,,0.00,Wunderground v.1.15,2013-07-24 02:49:00,
2013-07-23 19:54:00,82.2,55.5,30.00,South,178,6.0,8.0,40,0.00,,,0.00,Wunderground v.1.15,2013-07-24 02:54:00,
2013-07-23 20:00:00,81.6,54.2,30.00,South,173,5.0,5.0,39,0.00,,,0.00,Wunderground v.1.15,2013-07-24 03:00:00,
2013-07-23 20:05:00,81.0,53.7,30.00,SSE,157,8.0,10.0,39,0.00,,,0.00,Wunderground v.1.15,2013-07-24 03:05:00,
2013-07-23 20:10:00,80.6,52.6,30.00,South,170,3.0,5.0,38,0.00,,,0.00,Wunderground v.1.15,2013-07-24 03:10:00,
2013-07-23 20:15:00,80.2,52.3,30.00,South,177,6.0,12.0,38,0.00,,,0.00,Wunderground v.1.15,2013-07-24 03:15:00,
2013-07-23 20:21:00,80.0,52.8,30.00,South,176,2.0,6.0,39,0.00,,,0.00,Wunderground v.1.15,2013-07-24 03:21:00,
2013-07-23 20:26:00,79.8,52.6,30.00,South,178,3.0,13.0,39,0.00,,,0.00,Wunderground v.1.15,2013-07-24 03:26:00,
2013-07-23 20:31:00,79.6,51.8,30.01,South,173,3.0,6.0,38,0.00,,,0.00,Wunderground v.1.15,2013-07-24 03:31:00,
2013-07-23 20:36:00,79.3,52.2,30.01,South,176,3.0,7.0,39,0.00,,,0.00,Wunderground v.1.15,2013-07-24 03:36:00,
2013-07-23 20:41:00,79.1,52.0,30.01,South,169,11.0,11.0,39,0.00,,,0.00,Wunderground v.1.15,2013-07-24 03:41:00,
2013-07-23 20:46:00,78.7,52.3,30.01,South,177,5.0,12.0,40,0.00,,,0.00,Wunderground v.1.15,2013-07-24 03:46:00,
2013-07-23 20:51:00,78.5,52.2,30.01,SSE,163,6.0,7.0,40,0.00,,,0.00,Wunderground v.1.15,2013-07-24 03:51:00,
2013-07-23 20:56:00,78.2,52.6,30.01,SSE,167,4.0,11.0,41,0.00,,,0.00,Wunderground v.1.15,2013-07-24 03:56:00,
2013-07-23 21:01:00,78.0,52.4,30.01,South,169,0.0,4.0,41,0.00,,,0.00,Wunderground v.1.15,2013-07-24 04:01:00,
2013-07-23 21:06:00,77.7,52.1,30.01,SSE,155,6.0,7.0,41,0.00,,,0.00,Wunderground v.1.15,2013-07-24 04:06:00,
2013-07-23 21:11:00,77.7,52.8,30.01,SSE,155,3.0,9.0,42,0.00,,,0.00,Wunderground v.1.15,2013-07-24 04:11:00,
2013-07-23 21:16:00,77.5,52.6,30.01,SSE,149,3.0,9.0,42,0.00,,,0.00,Wunderground v.1.15,2013-07-24 04:16:00,
2013-07-23 21:21:00,77.3,52.4,30.01,SSE,151,0.0,6.0,42,0.00,,,0.00,Wunderground v.1.15,2013-07-24 04:21:00,
2013-07-23 21:26:00,77.1,52.9,30.02,SE,143,2.0,6.0,43,0.00,,,0.00,Wunderground v.1.15,2013-07-24 04:26:00,
2013-07-23 21:31:00,77.0,52.8,30.02,SSE,156,2.0,10.0,43,0.00,,,0.00,Wunderground v.1.15,2013-07-24 04:31:00,
2013-07-23 21:36:00,76.7,52.5,30.02,SSE,148,3.0,10.0,43,0.00,,,0.00,Wunderground v.1.15,2013-07-24 04:36:00,
2013-07-23 21:41:00,76.4,52.2,30.02,SSE,152,0.0,9.0,43,0.00,,,0.00,Wunderground v.1.15,2013-07-24 04:41:00,
2013-07-23 21:46:00,76.2,52.1,30.02,SSE,154,7.0,9.0,43,0.00,,,0.00,Wunderground v.1.15,2013-07-24 04:46:00,
2013-07-23 21:51:00,76.2,52.1,30.01,SSE,159,3.0,9.0,43,0.00,,,0.00,Wunderground v.1.15,2013-07-24 04:51:00,
2013-07-23 21:56:00,76.2,52.1,30.02,SSE,151,4.0,9.0,43,0.00,,,0.00,Wunderground v.1.15,2013-07-24 04:56:00,
2013-07-23 22:01:00,76.0,51.9,30.02,SSE,153,5.0,7.0,43,0.00,,,0.00,Wunderground v.1.15,2013-07-24 05:01:00,
2013-07-23 22:06:00,75.7,51.6,30.02,SSE,153,4.0,12.0,43,0.00,,,0.00,Wunderground v.1.15,2013-07-24 05:06:00,
2013-07-23 22:11:00,75.4,51.3,30.02,South,172,3.0,7.0,43,0.00,,,0.00,Wunderground v.1.15,2013-07-24 05:11:00,
2013-07-23 22:16:00,75.2,51.8,30.02,SSE,161,5.0,9.0,44,0.00,,,0.00,Wunderground v.1.15,2013-07-24 05:16:00,
2013-07-23 22:21:00,75.0,51.6,30.02,SSE,167,0.0,5.0,44,0.00,,,0.00,Wunderground v.1.15,2013-07-24 05:21:00,
2013-07-23 22:27:00,74.7,51.3,30.02,SSE,168,0.0,5.0,44,0.00,,,0.00,Wunderground v.1.15,2013-07-24 05:27:00,
2013-07-23 22:32:00,74.7,51.9,30.02,SSE,150,4.0,10.0,45,0.00,,,0.00,Wunderground v.1.15,2013-07-24 05:32:00,
2013-07-23 22:37:00,74.6,51.9,30.02,SSE,153,0.0,10.0,45,0.00,,,0.00,Wunderground v.1.15,2013-07-24 05:37:00,
2013-07-23 22:42:00,74.6,52.4,30.02,SE,140,0.0,5.0,46,0.00,,,0.00,Wunderground v.1.15,2013-07-24 05:42:00,
2013-07-23 22:47:00,74.4,52.3,30.02,SE,138,0.0,7.0,46,0.00,,,0.00,Wunderground v.1.15,2013-07-24 05:47:00,
2013-07-23 22:52:00,74.3,52.2,30.02,SE,141,0.0,4.0,46,0.00,,,0.00,Wunderground v.1.15,2013-07-24 05:52:00,
2013-07-23 22:57:00,74.2,52.7,30.02,SE,142,0.0,6.0,47,0.00,,,0.00,Wunderground v.1.15,2013-07-24 05:57:00,
2013-07-23 23:02:00,74.1,52.6,30.02,SE,144,1.0,1.0,47,0.00,,,0.00,Wunderground v.1.15,2013-07-24 06:02:00,
2013-07-23 23:07:00,74.0,51.9,30.02,SE,145,0.0,4.0,46,0.00,,,0.00,Wunderground v.1.15,2013-07-24 06:07:00,
2013-07-23 23:12:00,73.8,51.7,30.02,SSE,151,5.0,8.0,46,0.00,,,0.00,Wunderground v.1.15,2013-07-24 06:12:00,
2013-07-23 23:17:00,73.6,51.5,30.02,SSE,151,4.0,8.0,46,0.00,,,0.00,Wunderground v.1.15,2013-07-24 06:17:00,
2013-07-23 23:22:00,73.5,51.4,30.02,SSE,152,5.0,7.0,46,0.00,,,0.00,Wunderground v.1.15,2013-07-24 06:22:00,
2013-07-23 23:27:00,73.6,51.5,30.02,SSE,153,2.0,7.0,46,0.00,,,0.00,Wunderground v.1.15,2013-07-24 06:27:00,
2013-07-23 23:32:00,73.7,52.2,30.02,SSE,148,0.0,4.0,47,0.00,,,0.00,Wunderground v.1.15,2013-07-24 06:32:00,
2013-07-23 23:37:00,73.6,52.1,30.02,SE,129,1.0,8.0,47,0.00,,,0.00,Wunderground v.1.15,2013-07-24 06:37:00,
2013-07-23 23:42:00,73.6,52.1,30.03,SE,129,0.0,4.0,47,0.00,,,0.00,Wunderground v.1.15,2013-07-24 06:42:00,
2013-07-23 23:47:00,73.5,52.0,30.02,SE,128,0.0,5.0,47,0.00,,,0.00,Wunderground v.1.15,2013-07-24 06:47:00,
2013-07-23 23:52:00,73.4,51.9,30.03,SE,128,4.0,8.0,47,0.00,,,0.00,Wunderground v.1.15,2013-07-24 06:52:00,
2013-07-23 23:57:00,73.3,51.8,30.03,SE,127,6.0,8.0,47,0.00,,,0.00,Wunderground v.1.15,2013-07-24 06:57:00,